一网星座-0565星 (ONEWEB-0565)

导读 | 星芒AI

ONEWEB-0565 是 OneWeb 卫星通信公司发射的低轨通信卫星之一,属于其全球宽带互联网星座计划的一部分。该卫星运行在约 1200 公里的近地轨道,旨在为全球用户提供高速、低延迟的互联网服务。OneWeb 通过部署大量此类卫星,致力于填补数字鸿沟,特别是在偏远和农村地区。ONEWEB-0565 采用先进通信技术,支持高频段传输,具备高带宽和高可靠性,是实现全球互联的重要组成部分。

基本信息
目录编号:
55146
目录名称:
ONEWEB-0565
国际标识:
2023-004G
轨道中心:
EARTH
卫星名称:
一网星座-0565星
卫星全名:
一网星座-0565星 (ONEWEB-0565)
卫星状态:
在轨 (已飞行1071 天)
发射日期:
2023-01-10 UTC
国别 :
英国 (GB)
星等 :
--
轨道信息
数据来源 国际轨道数据 AOE轨道数据
星历时间 2025-12-15T16:54:27+0800
17小时前
查看轨道信息
2025-12-12T20:00:00+0800
3天前
查看轨道信息
半长轴 7567.88km 7567.866km
偏心率 0.0001297 0.0001158
轨道倾角 87.916° 87.918°
近地点辐角 85.871° 82.817°
升交点赤经 12.025° 12.595°
平近点角 274.257° 335.008°
近地点 1188.763km 1188.854km
远地点 1190.727km 1190.608km
周期 109.200分钟 109.199分钟
每日圈数 13.186861 13.186898
详细信息
平衡模式:
三轴稳定
覆盖范围:
全球
运营商:
一网卫星公司
运营商所在国:
英国
制造商(研发单位):
一网卫星公司
制造商所在国:
英国
使用方式:
暂无
卫星简介
OneWeb卫星网络由648颗重约125公斤的微型卫星组成,运行在1200公里的轨道上。 每颗卫星都能够提供至少每秒8千兆位的吞吐量,以使用其高吞吐量的Ku频段有效载荷为家庭和移动平台提供互联网接入。该卫星仍在工作。
2D轨道图
3D轨道图
轨道高度分析图
轨道倾角分析图
轨道综合分析图
查看轨道综合分析图